This is the latest recevied weather packets stored in our database for station/object KC0SIQ-13. If no packets are shown the sender has not sent any weather packets the latest 10 day(s).
| Time | Temp. | Humidity | Pressure | Rain* | Wind** | Luminosity | Snow |
|---|---|---|---|---|---|---|---|
| 1777652713 | 12.78° C | 31% | 1018.5 hPa | 0 mm | - | 47 W/m² | - |
| 1777652410 | 12.78° C | 27% | 1018.9 hPa | 0 mm | - | 48 W/m² | - |
| 1777652108 | 12.78° C | 28% | 1018.4 hPa | 0 mm | - | 48 W/m² | - |
| 1777651804 | 12.78° C | 29% | 1018.5 hPa | 0 mm | - | 48 W/m² | - |
| 1777651501 | 12.22° C | 30% | 1018.7 hPa | 0 mm | - | 48 W/m² | - |
| 1777651198 | 11.67° C | 32% | 1018.5 hPa | 0 mm | - | 48 W/m² | - |
| 1777650894 | 11.67° C | 30% | 1018.4 hPa | 0 mm | - | 48 W/m² | - |
| 1777650591 | 11.67° C | 33% | 1018.4 hPa | 0 mm | - | 47 W/m² | - |
| 1777650289 | 11.67° C | 32% | 1018.4 hPa | 0 mm | - | 46 W/m² | - |
| 1777649985 | 10.56° C | 33% | 1018.3 hPa | 0 mm | - | 47 W/m² | - |
| 1777649684 | 11.11° C | 31% | 1018.4 hPa | 0 mm | - | 46 W/m² | - |
| 1777649384 | 10.56° C | 43% | 1018.7 hPa | 0 mm | - | 45 W/m² | - |
| 1777649082 | 10.56° C | 46% | 1018.5 hPa | 0 mm | - | 44 W/m² | - |
| 1777648779 | 10° C | 41% | 1018.5 hPa | 0 mm | - | 42 W/m² | - |
| 1777648476 | 10° C | 45% | 1018.7 hPa | 0 mm | - | 42 W/m² | - |
| 1777648172 | 10° C | 49% | 1018.7 hPa | 0 mm | - | 41 W/m² | - |
| 1777647868 | 10° C | 50% | 1018.4 hPa | 0 mm | - | 39 W/m² | - |
| 1777647564 | 9.44° C | 51% | 1018.4 hPa | 0 mm | - | 38 W/m² | - |
| 1777647261 | 9.44° C | 52% | 1018.7 hPa | 0 mm | - | 38 W/m² | - |
| 1777646959 | 9.44° C | 50% | 1018.7 hPa | 0 mm | - | 36 W/m² | - |
| 1777646654 | 8.89° C | 51% | 1018.8 hPa | 0 mm | - | 49 W/m² | - |
| 1777646350 | 8.89° C | 53% | 1018.7 hPa | 0 mm | - | 359 W/m² | - |
| 1777646047 | 8.89° C | 54% | 1018.8 hPa | 0 mm | - | 335 W/m² | - |
| 1777645744 | 8.89° C | 52% | 1018.5 hPa | 0 mm | - | 298 W/m² | - |
| 1777645440 | 8.33° C | 54% | 1018.4 hPa | 0 mm | - | 267 W/m² | - |
* Rain latest hour (hover to see other rain measurements)
** Current wind speed in m/s (hover to see current wind gust speed)